Regional Weather Roundup
Issued by NWS Newport/Morehead, NC

Current Version | Previous Version | Graphics & Text | Print | Product List | Glossary On
Versions: 1 2 3 4 5 6 7 8 9 10 11 12 13 14 15 16 17 18 19 20 21 22 23 24 25 26 27 28 29 30 31 32 33 34 35 36 37 38 39 40 41 42 43 44 45 46 47 48 49 50
000 ASUS42 KMHX 271428 RWRMHX WEATHER ROUNDUP FOR EASTERN NORTH CAROLINA NATIONAL WEATHER SERVICE NEWPORT/MOREHEAD CITY NC 900 AM EST FRI FEB 27 2015 NOTE: "FAIR" INDICATES FEW OR NO CLOUDS BELOW 12,000 FEET WITH NO SIGNIFICANT WEATHER AND/OR OBSTRUCTIONS TO VISIBILITY NCZ015>017-031-032-045>047-102-103-271500- NORTH COAST CITY SKY/WX TMP DP RH WIND PRES REMARKS EDENTON SUNNY 33 26 74 NE3 30.36S ELIZABETH CITY SUNNY 33 27 78 N5 30.36R KITTY HAWK SUNNY 36 31 81 N8 30.33R MANTEO MOSUNNY 36 30 80 N9 30.34R $$ NCZ045>047-081-094-103-104-271500- CENTRAL COAST CITY SKY/WX TMP DP RH WIND PRES REMARKS FRISCO PTSUNNY 36 32 85 VRB6 30.32R SWANQUARTER N/A 36 N/A N/A N5 30.30S $$ NCZ095-097-098-100-101-271500- SOUTHERN COAST CITY SKY/WX TMP DP RH WIND PRES REMARKS BEAUFORT PTSUNNY 37 28 70 N8 30.33R CEDAR ISLAND N/A 36 N/A N/A N10G16 30.36S JACKSONVILLE PTSUNNY 36 29 75 N7 30.35R PINEY ISLAND N/A N/A N/A N/A MISG 30.34R WILMINGTON PTSUNNY 37 30 75 NE10 30.34R $$ NCZ011>013-027>030-043-044-078>080-089-090>093-098-271500- COASTAL PLAIN CITY SKY/WX TMP DP RH WIND PRES REMARKS AHOSKIE SUNNY N/A N/A N/A CALM 30.36R FOG CLINTON SUNNY 34 32 92 CALM 30.36R ELIZABETHTOWN MOSUNNY 36 32 84 N3 30.35S GOLDSBORO SUNNY 34 34 99 CALM 30.34R GREENVILLE SUNNY 34 32 93 CALM 30.37S HAVELOCK PTSUNNY 36 28 73 N9 30.35R KENANSVILLE MOSUNNY 35 33 92 N3 30.36S KINSTON MOSUNNY 34 34 100 N3 30.36R FOG NEW BERN PTSUNNY 34 28 79 N9 30.36R RICHLANDS PTSUNNY 36 28 75 N7 30.36R ROCKY MOUNT SUNNY 32 32 100 CALM 30.36R FOG WASHINGTON MOSUNNY 34 29 81 N6 30.37R WHITEVILLE PTSUNNY 36 31 82 NE5 30.34R $$ AMZ130-135-150-152-154-156-158-170-250-252-270-ANZ085-086-088-633-658-670-271500- MARINE OBSERVATIONS STATION/POSITION TIME TEMP WIND PRES WAVE SWELL AIR SEA DIR/SP/G HT/PER HT/PER (UTC) (F) (DEG/KT/KT) (MB) (FT/S) (FT/S) CHESAPEAKE LIGHT 1400 33 30/ 8/ 8 1028.2 64 E VA BEACH 1350 42 58 10/ 16/ 21 1026.1 8/11 8/11 DUCK 1306 34 34 350/ 11/ 12 1025.9 2 E DUCK 1311 35 N/A 6/10 3/11 10 NE DUCK 1322 36 N/A 7/12 3/12 OREGON INLET 1300 35 36 340/ 8/ 11 1026.2 HATTERAS CG 1306 35 40 350/ 14/ 17 1026.5 CAPE LOOKOUT 1400 36 360/ 11/ 13 1026.7 BEAUFORT LAB 1400 36 40 360/ 8/ 11 1026.0 27 SE WRIGHTSVLE NOT AVBL 5 SE WRIGHTSVLE NOT AVBL 225 S CAPE HAT 1350 63 70 340/ 12/ 16 1022.3 8/11 8/11 41 SE CHARLESTON 1350 47 65 20/ 16/ 21 1025.5 5/ 8 3/ 8 $$

USA.gov is the U.S. government's official web portal to all federal, state and local government web resources and services.